Regional Weather Roundup
Issued by NWS

Home | Current Version | Previous Version | Text Only | Print | Product List | Glossary Off
Versions: 1 2 3 4 5 6 7 8 9 10 11 12 13 14 15 16 17 18 19 20 21 22 23 24 25 26 27 28 29 30 31 32 33 34 35 36 37 38 39 40 41 42 43 44 45 46 47 48 49 50

000
ASUS43 KLMK 240810
RWRKY
KENTUCKY REGIONAL WEATHER ROUNDUP
NATIONAL WEATHER SERVICE LOUISVILLE KY
400 AM EDT THU APR 24 2014

NOTE "FAIR" INDICATES FEW OR NO CLOUDS BELOW 12,000 FEET
WITH NO SIGNIFICANT WEATHER AND/OR OBSTRUCTIONS TO VISIBILITY.

KYZ001>023-026-027-061>063-070>075-240900-
WESTERN AND SOUTH CENTRAL KENTUCKY

CITY           SKY/WX    TMP DP  RH WIND       PRES   REMARKS
PADUCAH        PTCLDY    54  37  52 SE8       29.94F
HENDERSON      MOCLDY    52  34  50 SE7       29.98F
OWENSBORO      PTCLDY    50  35  56 SE6       30.00F
HOPKINSVILLE   CLEAR     50  36  58 E6        29.98S
BOWLING GREEN  PTCLDY    44  36  73 CALM      30.00F
GLASGOW        CLEAR     43  36  75 CALM      30.01S
$$

KYZ024-025-028>034-038-045-046-053-240900-
NORTH CENTRAL KENTUCKY

CITY           SKY/WX    TMP DP  RH WIND       PRES   REMARKS
LOUISVILLE/SDF MOCLDY    53  34  48 E9        30.02F
LOUISVILLE/LOU CLOUDY    56  33  42 E6        30.02F
FORT KNOX      PTCLDY    50  34  55 E7        30.00F
$$

KYZ035>037-039>044-047>052-055>060-089>105-240900-
NORTHEAST KENTUCKY

CITY           SKY/WX    TMP DP  RH WIND       PRES   REMARKS
LEXINGTON      MOCLDY    52  33  48 E10       30.04S
COVINGTON      CLOUDY    50  34  54 E12       30.05S
FRANKFORT      CLOUDY    49  35  58 E9        30.03S
$$

KYZ054-064>069-076>088-106>120-240900-
SOUTHEAST KENTUCKY

CITY           SKY/WX    TMP DP  RH WIND       PRES   REMARKS
JACKSON        CLEAR     47  30  51 VRB3      30.06R
LONDON         CLEAR     46  33  60 N5        30.04R
SOMERSET       MOCLDY    45  32  61 CALM      30.04S
MIDDLESBORO    CLEAR     38  36  89 CALM      30.05R
MONTICELLO     SUNNY     38  35  89 CALM      30.04S
$$




USA.gov is the U.S. government's official web portal to all federal, state and local government web resources and services.